Change the Weather History Date:

Sunday, June 30, 2013

  Actual Average Record
Temperature  
Mean Temperature 71 °F -  
Max Temperature 80 °F 79 °F 96 °F (1971)
Min Temperature 62 °F 54 °F 45 °F (1981)
Cooling Degree Days 6    
Growing Degree Days 21 (Base 50)    
Moisture  
Dew Point 66 °F    
Average Humidity 89    
Maximum Humidity 100    
Minimum Humidity 65    
Precipitation  
Precipitation 0.14 in - - ()
Sea Level Pressure  
Sea Level Pressure 29.78 in    
Wind  
Wind Speed 4 mph (SSW)    
Max Wind Speed 9 mph    
Max Gust Speed -    
Visibility 1 miles    
Events Thunderstorm    
Averages and records for this station are not official NWS values.
T = Trace of Precipitation, MM = Missing Value Source: NWS Daily Summary

Daily Weather History Graph

Daily Weather History Graph

Search for Another Location

Airport or City:

Trip Planner

Search our weather history database for the weather conditions in past years. The results will help you decide how hot, cold, wet, or windy it might be!

Date:

Astronomy

Jun. 30, 2013 Rise Set
Actual Time 4:57 AM EDT 8:27 PM EDT
Civil Twilight 4:20 AM EDT 9:04 PM EDT
Nautical Twilight 3:32 AM EDT 9:52 PM EDT
Astronomical Twilight 2:29 AM EDT 10:54 PM EDT
Moon 12:06 AM EDT (6/30) 1:28 PM EDT (6/30)
Length of Visible Light 16h 43m
Length of Day
15h 30m
Last Quarter, 45% of the Moon is Illuminated
Jun 30
Last Quarter
Jul 8
New
Jul 15
First Quarter
Jul 22
Full
Jul 29
Last Quarter

Hourly Weather History & Observations

Time (EDT) Temp. Heat Index Dew Point Humidity Pressure Visibility Wind Dir Wind Speed Gust Speed Precip Events Conditions
12:15 AM 62.6 °F - 60.8 °F 94% 29.65 in - South 3.5 mph - N/A   Unknown
12:35 AM 62.6 °F - 62.6 °F 100% 29.65 in - SSW 3.5 mph - N/A   Unknown
12:55 AM 62.6 °F - 62.6 °F 100% 29.66 in - SSW 3.5 mph - N/A   Mostly Cloudy
1:15 AM 62.6 °F - 62.6 °F 100% 29.67 in 3.0 mi SSW 4.6 mph - N/A   Scattered Clouds
1:35 AM 62.6 °F - 62.6 °F 100% 29.67 in 2.5 mi SSW 3.5 mph - N/A   Mostly Cloudy
1:55 AM 62.6 °F - 62.6 °F 100% 29.66 in 2.5 mi SSW 4.6 mph - N/A   Overcast
2:15 AM 62.6 °F - 60.8 °F 94% 29.67 in 3.0 mi SSW 4.6 mph - N/A   Overcast
2:35 AM 62.6 °F - 60.8 °F 94% 29.67 in 1.5 mi SSW 4.6 mph - N/A   Overcast
2:55 AM 62.6 °F - 60.8 °F 94% 29.67 in 1.0 mi SSW 5.8 mph - N/A   Overcast
3:15 AM 62.6 °F - 60.8 °F 94% 29.68 in 0.5 mi South 4.6 mph - N/A   Overcast
3:35 AM 62.6 °F - 62.6 °F 100% 29.68 in 0.5 mi SSW 4.6 mph - N/A   Overcast
3:55 AM 62.6 °F - 62.6 °F 100% 29.68 in 0.5 mi South 4.6 mph - N/A   Overcast
4:15 AM 62.6 °F - 62.6 °F 100% 29.68 in 0.2 mi SSW 4.6 mph - N/A   Overcast
4:35 AM 62.6 °F - 62.6 °F 100% 29.69 in 0.2 mi South 3.5 mph - N/A   Overcast
4:55 AM 62.6 °F - 62.6 °F 100% 29.70 in 0.2 mi SSW 6.9 mph - N/A   Overcast
5:15 AM 62.6 °F - 62.6 °F 100% 29.70 in 0.2 mi Calm Calm - N/A   Overcast
5:35 AM 62.6 °F - 62.6 °F 100% 29.71 in - Calm Calm - N/A   Overcast
5:55 AM 64.4 °F - 64.4 °F 100% 29.71 in - Calm Calm - N/A   Overcast
6:15 AM 64.4 °F - 64.4 °F 100% 29.72 in - SSW 3.5 mph - N/A   Overcast
6:35 AM 64.4 °F - 64.4 °F 100% 29.73 in - Calm Calm - N/A   Overcast
6:55 AM 64.4 °F - 64.4 °F 100% 29.73 in - Calm Calm - N/A   Overcast
7:15 AM 64.4 °F - 62.6 °F 94% 29.74 in - Calm Calm - N/A   Overcast
7:35 AM 64.4 °F - 64.4 °F 100% 29.75 in - Calm Calm - N/A   Overcast
7:55 AM 64.4 °F - 64.4 °F 100% 29.76 in - SSW 3.5 mph - N/A   Overcast
8:15 AM 64.4 °F - 64.4 °F 100% 29.76 in - SSW 3.5 mph - N/A   Overcast
8:35 AM 66.2 °F - 66.2 °F 100% 29.77 in - SSW 5.8 mph - N/A   Overcast
8:55 AM 66.2 °F - 64.4 °F 94% 29.78 in - SSW 5.8 mph - N/A   Overcast
9:15 AM 66.2 °F - 64.4 °F 94% 29.78 in - SSW 8.1 mph - N/A   Overcast
9:35 AM 68.0 °F - 66.2 °F 94% 29.79 in - SSW 6.9 mph - N/A   Overcast
9:55 AM 69.8 °F - 68.0 °F 94% 29.79 in - SW 5.8 mph - N/A   Overcast
10:15 AM 71.6 °F - 68.0 °F 88% 29.79 in - SSW 6.9 mph - N/A   Overcast
10:35 AM 71.6 °F - 66.2 °F 83% 29.79 in - SSW 8.1 mph - N/A   Mostly Cloudy
10:55 AM 73.4 °F - 69.8 °F 88% 29.79 in - WSW 8.1 mph - N/A   Unknown
11:15 AM 73.4 °F - 68.0 °F 83% 29.78 in - SSW 6.9 mph - N/A   Partly Cloudy
11:35 AM 75.2 °F - 68.0 °F 78% 29.79 in - Calm Calm - N/A   Partly Cloudy
11:55 AM 75.2 °F - 69.8 °F 83% 29.79 in - South 4.6 mph - N/A   Scattered Clouds
12:15 PM 75.2 °F - 69.8 °F 83% 29.79 in - SE 3.5 mph - N/A   Scattered Clouds
12:35 PM 77.0 °F - 69.8 °F 78% 29.79 in - South 5.8 mph - N/A   Scattered Clouds
12:55 PM 77.0 °F - 68.0 °F 74% 29.80 in - South 6.9 mph - N/A   Scattered Clouds
1:15 PM 77.0 °F - 68.0 °F 74% 29.79 in - South 4.6 mph - N/A   Mostly Cloudy
1:35 PM 78.8 °F - 69.8 °F 74% 29.79 in - South 3.5 mph - N/A   Partly Cloudy
1:55 PM 78.8 °F - 69.8 °F 74% 29.79 in - SSW 6.9 mph - N/A   Mostly Cloudy
2:15 PM 78.8 °F - 69.8 °F 74% 29.80 in - Calm Calm - N/A   Mostly Cloudy
2:35 PM 80.6 °F 83.9 °F 69.8 °F 70% 29.80 in - SSW 3.5 mph - N/A   Mostly Cloudy
2:55 PM 80.6 °F 83.9 °F 69.8 °F 70% 29.80 in - South 4.6 mph - N/A   Overcast
3:15 PM 80.6 °F 83.2 °F 68.0 °F 65% 29.80 in - South 5.8 mph - N/A   Mostly Cloudy
3:35 PM 80.6 °F 83.2 °F 68.0 °F 65% 29.80 in - SSW 3.5 mph - N/A   Scattered Clouds
3:55 PM 80.6 °F 83.2 °F 68.0 °F 65% 29.80 in - SW 6.9 mph - N/A   Mostly Cloudy
4:15 PM 78.8 °F - 69.8 °F 74% 29.80 in - South 4.6 mph - N/A   Mostly Cloudy
4:35 PM 78.8 °F - 71.6 °F 78% 29.81 in - SSW 3.5 mph - N/A   Scattered Clouds
4:55 PM 78.8 °F - 71.6 °F 78% 29.81 in - South 4.6 mph - N/A   Clear
5:15 PM 78.8 °F - 69.8 °F 74% 29.82 in - South 4.6 mph - N/A   Clear
5:35 PM 78.8 °F - 69.8 °F 74% 29.82 in - South 5.8 mph - N/A   Clear
5:55 PM 77.0 °F - 69.8 °F 78% 29.82 in - SSW 9.2 mph - N/A   Clear
6:15 PM 77.0 °F - 69.8 °F 78% 29.83 in - South 4.6 mph - N/A   Clear
6:35 PM 75.2 °F - 69.8 °F 83% 29.83 in - SSW 3.5 mph - N/A   Clear
6:55 PM 75.2 °F - 69.8 °F 83% 29.84 in - South 4.6 mph - N/A   Clear
7:15 PM 75.2 °F - 68.0 °F 78% 29.85 in - SSW 5.8 mph - N/A   Clear
7:35 PM 75.2 °F - 69.8 °F 83% 29.85 in - South 4.6 mph - N/A   Clear
7:55 PM 73.4 °F - 68.0 °F 83% 29.85 in - SSW 6.9 mph - N/A   Clear
8:15 PM 73.4 °F - 69.8 °F 88% 29.85 in - SSW 5.8 mph - N/A   Unknown
8:35 PM 71.6 °F - 69.8 °F 94% 29.86 in - South 5.8 mph - N/A   Unknown
8:55 PM 71.6 °F - 69.8 °F 94% 29.88 in - SSW 8.1 mph - N/A Thunderstorm Thunderstorm
9:15 PM 69.8 °F - 69.8 °F 100% 29.88 in - SSW 5.8 mph - 0.03 in Thunderstorm Thunderstorm
9:35 PM 69.8 °F - 69.8 °F 100% 29.89 in - SSW 6.9 mph - 0.07 in Thunderstorm Thunderstorm
9:55 PM 69.8 °F - 68.0 °F 94% 29.89 in - SW 6.9 mph - 0.10 in   Unknown
10:15 PM 68.0 °F - 66.2 °F 94% 29.87 in - Calm Calm - 0.03 in   Unknown
10:35 PM 68.0 °F - 66.2 °F 94% 29.87 in - Calm Calm - 0.04 in   Unknown
10:55 PM 66.2 °F - 66.2 °F 100% 29.87 in - SW 4.6 mph - 0.04 in   Unknown
11:15 PM 66.2 °F - 66.2 °F 100% 29.88 in - SSW 4.6 mph - N/A   Unknown
11:35 PM 66.2 °F - 66.2 °F 100% 29.88 in - South 3.5 mph - N/A   Unknown
11:55 PM 66.2 °F - 66.2 °F 100% 29.89 in - SSW 4.6 mph - N/A   Unknown